Estación de Nogales
Ultimos registro cada 15 minutos 31
| N° | Estación | Fecha / Hora | Temperatura | Humedad | Lluvia | Velocidad | Dirección | Radiación | Presion |
| 31 | Nogales | 09-05-2026 07:30 | 1,6 | 96,4 | 0 | 0 | 347 | 4,4 | 985,2 |
| 30 | Nogales | 09-05-2026 07:15 | 2 | 96,5 | 0 | 0 | 347 | 0,6 | 985,3 |
| 29 | Nogales | 09-05-2026 07:00 | 1,5 | 96,2 | 0 | 0 | 347 | 0,6 | 985,2 |
| 28 | Nogales | 09-05-2026 06:45 | 1,6 | 96 | 0 | 0 | 347 | 0,6 | 985 |
| 27 | Nogales | 09-05-2026 06:30 | 2 | 95,5 | 0 | 0 | 347 | 0,6 | 985 |
| 26 | Nogales | 09-05-2026 06:15 | 2,4 | 95,9 | 0 | 0 | 347 | 0,6 | 984,9 |
| 25 | Nogales | 09-05-2026 06:00 | 2,6 | 96,1 | 0 | 0 | 348 | 0,6 | 984,6 |
| 24 | Nogales | 09-05-2026 05:45 | 2,2 | 95,6 | 0 | 0 | 348 | 0,6 | 984,6 |
| 23 | Nogales | 09-05-2026 05:30 | 2,7 | 95,5 | 0 | 0 | 348 | 0,6 | 984,4 |
| 22 | Nogales | 09-05-2026 05:15 | 3,1 | 95,7 | 0 | 0 | 348 | 0,6 | 984,3 |
| 21 | Nogales | 09-05-2026 05:00 | 3,1 | 95,4 | 0 | 0 | 348 | 0,6 | 984,4 |
| 20 | Nogales | 09-05-2026 04:45 | 2,7 | 95 | 0 | 0 | 348 | 0,6 | 984,4 |
| 19 | Nogales | 09-05-2026 04:30 | 2,6 | 95,3 | 0 | 0 | 348 | 0,6 | 984,6 |
| 18 | Nogales | 09-05-2026 04:15 | 2,5 | 95,1 | 0 | 0 | 348 | 0,6 | 984,5 |
| 17 | Nogales | 09-05-2026 04:00 | 2,6 | 94,7 | 0 | 0 | 348 | 0,6 | 984,6 |
| 16 | Nogales | 09-05-2026 03:45 | 2,8 | 94,8 | 0 | 0 | 348 | 0,6 | 984,5 |
| 15 | Nogales | 09-05-2026 03:30 | 2,7 | 94,3 | 0 | 0 | 348 | 0,6 | 984,6 |
| 14 | Nogales | 09-05-2026 03:15 | 2,9 | 94,3 | 0 | 0 | 348 | 0,6 | 984,7 |
| 13 | Nogales | 09-05-2026 03:00 | 2,7 | 94 | 0 | 0 | 348 | 0,6 | 985 |
| 12 | Nogales | 09-05-2026 02:45 | 3 | 93,9 | 0 | 0 | 348 | 0,6 | 985,1 |
| 11 | Nogales | 09-05-2026 02:30 | 3,3 | 93,6 | 0 | 0 | 348 | 0,6 | 985,1 |
| 10 | Nogales | 09-05-2026 02:15 | 3,6 | 93,6 | 0 | 0 | 348 | 0,6 | 985,2 |
| 9 | Nogales | 09-05-2026 02:00 | 4 | 93,5 | 0 | 0 | 348 | 0,6 | 985,6 |
| 8 | Nogales | 09-05-2026 01:45 | 4 | 93,2 | 0 | 0 | 347 | 0,6 | 985,5 |
| 7 | Nogales | 09-05-2026 01:30 | 3,8 | 92,9 | 0 | 0 | 347 | 0,6 | 985,6 |
| 6 | Nogales | 09-05-2026 01:15 | 4,1 | 92,8 | 0 | 0 | 347 | 0,6 | 985,7 |
| 5 | Nogales | 09-05-2026 01:00 | 4,1 | 92,7 | 0 | 0 | 347 | 0,6 | 985,9 |
| 4 | Nogales | 09-05-2026 00:45 | 4,1 | 92,2 | 0 | 0 | 347 | 0,6 | 986 |
| 3 | Nogales | 09-05-2026 00:30 | 4,8 | 91,9 | 0 | 0 | 347 | 0,6 | 986,1 |
| 2 | Nogales | 09-05-2026 00:15 | 4,3 | 91,6 | 0 | 0 | 347 | 0,6 | 986,2 |
| 1 | Nogales | 09-05-2026 00:00 | 4,8 | 91,2 | 0 | 0 | 347 | 0,6 | 986,4 |